Terug naar catalogus

SL-12 DEB

LostHEO
NORAD 29344·DEBRIS·🇷🇺 Russia

Gelanceerd May 31, 1989 vanaf Baikonur Cosmodrome

Loading…

Volgende Passages (komende 24 uur)

TLE

VerouderdSource: Space-Track

Epoch: Nov 4, 2006, 21:47 UTC

1 29344U 89039BB  06308.90812811  .00012417  00000-0  36735-1 0  9998
2 29344  65.7091 238.6096 5632700  61.9407 348.9811  4.35923808  5265

Volg SL-12 DEB in realtime met AllMySat

Download on the App Store